Flint, MI

2:23 PM EDT on October 18, 2018 (GMT -0400)
Bishop International

Weather History for KFNT - March, 2018

Change the Weather History Date:

Wednesday, March 14, 2018

  Actual Average Record
Temperature  
Mean Temperature 28 °F 33 °F  
Max Temperature 37 °F 43 °F 76 °F (1990)
Min Temperature 19 °F 24 °F 5 °F (1993)
Degree Days  
Heating Degree Days 37 32  
Month to date heating degree days 507 478  
Since 1 July heating degree days 5457 5566  
Cooling Degree Days 0 0  
Month to date cooling degree days 0 0  
Year to date cooling degree days 0 0  
Moisture  
Dew Point 16 °F    
Average Humidity 61    
Maximum Humidity 77    
Minimum Humidity 44    
Precipitation  
Precipitation T in 0.06 in 1.01 in (1973)
Month to date precipitation 0.59 0.78  
Year to date precipitation 6.47 3.89  
Snow  
Snow T in 0.20 in 2.80 in (1987)
Month to date snowfall 11.7 3.7  
Since 1 July snowfall 77.4 42.3  
Snow Depth 3.00 in    
Sea Level Pressure  
Sea Level Pressure 29.94 in    
Wind  
Wind Speed 13 mph (WNW)    
Max Wind Speed 22 mph    
Max Gust Speed 26 mph    
Visibility 10 miles    
Events      
T = Trace of Precipitation, MM = Missing Value Source: NWS Daily Summary

Daily Weather History Graph

Daily Weather History Graph

Search for Another Location

Airport or City:

Astronomy

Mar. 14, 2018 Rise Set
Actual Time 7:48 AM EDT 7:40 PM EDT
Civil Twilight 7:20 AM EDT 8:08 PM EDT
Nautical Twilight 6:47 AM EDT 8:41 PM EDT
Astronomical Twilight 6:14 AM EDT 9:14 PM EDT
Moon 6:30 AM EDT (3/14) 4:52 PM EDT (3/14)
Length of Visible Light 12h 47m
Length of Day
11h 51m
Waning Crescent, 8% of the Moon is Illuminated
Mar 14
Waning Crescent
Mar 17
New
Mar 24
First Quarter
Mar 31
Full
Apr 8
Last Quarter

Hourly Weather History & Observations

Time (EDT) Temp. Windchill Dew Point Humidity Pressure Visibility Wind Dir Wind Speed Gust Speed Precip Events Conditions
12:53 AM 25.0 °F 13.6 °F 14.0 °F 63% 30.06 in 10.0 mi NW 12.7 mph - N/A   Overcast
1:53 AM 23.0 °F 9.6 °F 12.0 °F 63% 30.06 in 10.0 mi NW 16.1 mph - N/A   Overcast
2:53 AM 21.9 °F 9.8 °F 12.0 °F 66% 30.05 in 10.0 mi NW 12.7 mph - N/A   Clear
3:53 AM 19.9 °F 9.3 °F 12.0 °F 71% 30.04 in 10.0 mi NW 9.2 mph - N/A   Mostly Cloudy
4:53 AM 19.9 °F 7.9 °F 12.0 °F 71% 30.03 in 10.0 mi WNW 11.5 mph - N/A   Clear
5:53 AM 19.9 °F 7.9 °F 12.0 °F 71% 30.03 in 10.0 mi WNW 11.5 mph - N/A   Clear
6:53 AM 19.9 °F 7.9 °F 12.9 °F 74% 30.03 in 10.0 mi WNW 11.5 mph - N/A   Clear
7:53 AM 19.9 °F 7.9 °F 14.0 °F 78% 30.04 in 10.0 mi WNW 11.5 mph - N/A   Scattered Clouds
8:53 AM 23.0 °F 9.6 °F 16.0 °F 74% 30.02 in 9.0 mi NW 16.1 mph 20.7 mph N/A   Scattered Clouds
9:00 AM 23.0 °F 8.7 °F 16.0 °F 74% 29.99 in 10.0 mi NW 18.4 mph - N/A   Overcast
9:53 AM 23.0 °F 9.6 °F 15.1 °F 72% 30.02 in 10.0 mi NW 16.1 mph - N/A   Overcast
10:53 AM 23.0 °F 9.6 °F 15.1 °F 72% 30.01 in 10.0 mi WNW 16.1 mph - N/A   Overcast
11:53 AM 25.0 °F 13.6 °F 15.1 °F 66% 30.00 in 10.0 mi NW 12.7 mph - N/A   Overcast
12:53 PM 28.0 °F 15.3 °F 17.1 °F 63% 29.97 in 10.0 mi West 18.4 mph - N/A   Mostly Cloudy
1:19 PM 28.9 °F 16.9 °F 18.0 °F 64% 29.92 in 10.0 mi West 17.3 mph - N/A   Scattered Clouds
1:53 PM 30.0 °F 18.7 °F 18.0 °F 61% 29.94 in 10.0 mi West 16.1 mph - N/A   Scattered Clouds
2:53 PM 32.0 °F 19.8 °F 17.1 °F 54% 29.90 in 10.0 mi West 20.7 mph 26.5 mph N/A   Clear
3:53 PM 33.1 °F 22.6 °F 17.1 °F 52% 29.87 in 10.0 mi WNW 16.1 mph - N/A   Clear
4:53 PM 35.1 °F 24.8 °F 16.0 °F 46% 29.84 in 10.0 mi WNW 17.3 mph 24.2 mph N/A   Partly Cloudy
5:53 PM 36.0 °F 26.3 °F 17.1 °F 46% 29.83 in 10.0 mi West 16.1 mph - N/A   Mostly Cloudy
6:53 PM 35.1 °F 27.4 °F 18.0 °F 50% 29.82 in 10.0 mi West 10.4 mph - N/A   Mostly Cloudy
7:53 PM 34.0 °F 27.2 °F 18.0 °F 52% 29.83 in 10.0 mi West 8.1 mph - N/A   Overcast
8:53 PM 34.0 °F 26.6 °F 19.0 °F 54% 29.83 in 10.0 mi WSW 9.2 mph - N/A   Overcast
9:53 PM 34.0 °F 28.8 °F 19.0 °F 54% 29.81 in 10.0 mi WSW 5.8 mph - N/A   Overcast
10:53 PM 33.1 °F 26.9 °F 19.0 °F 56% 29.78 in 10.0 mi SSW 6.9 mph - N/A   Overcast
11:53 PM 34.0 °F 28.8 °F 17.1 °F 50% 29.75 in 10.0 mi SSW 5.8 mph - N/A   Overcast